TimeCDT,TemperatureF,Dew PointF,Humidity,Sea Level PressureIn,VisibilityMPH,Wind Direction,Wind SpeedMPH,Gust SpeedMPH,PrecipitationIn,Events,Conditions,WindDirDegrees,DateUTC
12:53 AM,27.0,15.1,61,30.07,10.0,West,12.7,-,N/A,,Mostly Cloudy,280,2013-03-20 05:53:00
1:53 AM,27.0,14.0,58,30.06,10.0,West,10.4,-,N/A,,Overcast,270,2013-03-20 06:53:00
2:53 AM,26.1,14.0,60,30.06,10.0,West,11.5,-,N/A,,Overcast,270,2013-03-20 07:53:00
3:53 AM,25.0,10.9,55,30.04,10.0,WNW,10.4,-,N/A,,Mostly Cloudy,290,2013-03-20 08:53:00
4:53 AM,21.9,10.0,60,30.04,10.0,WNW,12.7,-,N/A,,Clear,290,2013-03-20 09:53:00
5:53 AM,19.9,8.1,60,30.05,10.0,WNW,8.1,-,N/A,,Clear,300,2013-03-20 10:53:00
6:53 AM,19.0,8.1,62,30.07,10.0,West,9.2,-,N/A,,Partly Cloudy,280,2013-03-20 11:53:00
7:53 AM,19.0,8.1,62,30.09,10.0,West,13.8,-,N/A,,Clear,280,2013-03-20 12:53:00
8:53 AM,19.9,8.1,60,30.09,10.0,WNW,12.7,-,N/A,,Clear,290,2013-03-20 13:53:00
9:53 AM,19.9,7.0,57,30.09,10.0,West,15.0,-,N/A,,Clear,270,2013-03-20 14:53:00
10:53 AM,21.9,6.1,51,30.08,10.0,WNW,15.0,23.0,N/A,,Clear,290,2013-03-20 15:53:00
11:53 AM,23.0,7.0,50,30.09,10.0,West,13.8,25.3,N/A,,Clear,260,2013-03-20 16:53:00
12:53 PM,25.0,5.0,43,30.07,10.0,NW,12.7,21.9,N/A,,Clear,310,2013-03-20 17:53:00
1:53 PM,26.1,7.0,44,30.06,10.0,West,17.3,21.9,N/A,,Partly Cloudy,280,2013-03-20 18:53:00
2:53 PM,27.0,8.1,45,30.04,10.0,West,16.1,25.3,N/A,,Scattered Clouds,270,2013-03-20 19:53:00
3:53 PM,25.0,8.1,49,30.04,10.0,WNW,11.5,-,N/A,,Overcast,300,2013-03-20 20:53:00
4:53 PM,24.1,7.0,48,30.04,10.0,WNW,16.1,23.0,N/A,,Mostly Cloudy,290,2013-03-20 21:53:00
5:53 PM,23.0,8.1,53,30.05,10.0,WNW,13.8,20.7,N/A,,Overcast,290,2013-03-20 22:53:00
6:53 PM,23.0,8.1,53,30.05,10.0,WNW,12.7,-,N/A,,Overcast,300,2013-03-20 23:53:00
7:53 PM,21.0,10.0,63,30.06,10.0,NW,9.2,-,N/A,,Overcast,310,2013-03-21 00:53:00
8:31 PM,21.2,12.2,68,30.02,2.0,WNW,12.7,19.6,0.00,Snow,Light Snow,300,2013-03-21 01:31:00
8:38 PM,21.2,14.0,74,30.02,1.8,NW,11.5,-,0.00,Snow,Light Snow,310,2013-03-21 01:38:00
8:42 PM,21.2,14.0,74,30.02,3.0,NW,8.1,-,0.00,Snow,Light Snow,310,2013-03-21 01:42:00
8:53 PM,19.9,12.9,74,30.06,5.0,NW,9.2,18.4,0.00,Snow,Light Snow,310,2013-03-21 01:53:00
9:04 PM,19.4,12.2,74,30.02,2.5,NW,9.2,-,0.00,Snow,Light Snow,310,2013-03-21 02:04:00
9:11 PM,21.2,10.4,63,30.02,8.0,NW,11.5,-,0.00,Snow,Light Snow,310,2013-03-21 02:11:00
9:18 PM,19.4,10.4,68,30.02,6.0,NW,12.7,-,0.00,Snow,Light Snow,320,2013-03-21 02:18:00
9:46 PM,19.4,10.4,68,30.02,5.0,WNW,9.2,19.6,0.00,Snow,Light Snow,300,2013-03-21 02:46:00
9:53 PM,19.9,10.0,65,30.06,6.0,WNW,8.1,-,0.00,Snow,Light Snow,300,2013-03-21 02:53:00
10:38 PM,19.4,10.4,68,30.01,4.0,NW,9.2,-,0.00,Snow,Light Snow,310,2013-03-21 03:38:00
10:53 PM,19.9,10.9,68,30.05,9.0,WNW,9.2,-,0.00,,Overcast,300,2013-03-21 03:53:00
11:10 PM,19.4,12.2,74,30.01,1.8,NNW,12.7,21.9,0.00,Snow,Light Snow,330,2013-03-21 04:10:00
11:29 PM,19.4,12.2,74,30.01,3.0,WNW,8.1,-,0.00,Snow,Light Snow,300,2013-03-21 04:29:00
11:48 PM,19.4,10.4,68,30.01,9.0,WNW,5.8,-,0.00,,Overcast,300,2013-03-21 04:48:00
11:53 PM,19.9,8.1,60,30.04,10.0,NW,10.4,-,0.00,,Overcast,320,2013-03-21 04:53:00